Location: Flotzheim
(48.8375°N, 10.8136°E)
Time: 16:35:20
(UTC+00:00)

Cosmos 1455 - Pass Details

Date: 23 January 2021
Orbit: 499 x 520 km, 82.5° (Epoch: 28 February)

Event Time Altitude Azimuth Distance (km) Brightness Sun altitude
Rises 16:29:35 0° 1° (N) 2,633 5.5 -5.2°
Reaches altitude 10° 16:32:05 10° 17° (NNE) 1,746 4.5 -5.5°
Maximum altitude 16:35:08 22° 70° (ENE) 1,162 3.4 -6.0°
Drops below altitude 10° 16:38:10 10° 123° (ESE) 1,744 4.5 -6.5°
Sets 16:40:39 0° 139° (SE) 2,629 5.6 -6.8°
